Regional Weather Roundup
Issued by NWS Green Bay, WI

Home | Current Version | Previous Version | Graphics & Text | Print | Product List | Glossary Off
Versions: 1 2 3 4 5 6 7 8 9 10 11 12 13 14 15 16 17 18 19 20 21 22 23 24 25 26 27 28 29 30 31 32 33 34 35 36 37 38 39 40 41 42 43 44 45 46 47 48 49 50

000
ASUS43 KGRB 281310
RWRGRB

NORTH-CENTRAL AND NORTHEAST WISCONSIN REGIONAL WEATHER ROUNDUP
NATIONAL WEATHER SERVICE GREEN BAY WI
700 AM CST SAT FEB 28 2015

WIZ005-009-010>012-018-019-281400-
NORTH CENTRAL WISCONSIN

CITY           SKY/WX    TMP DP  RH WIND       PRES   REMARKS
IRONWOOD       PTCLDY     0  -9  65 S5        30.44S WCI -10
MANITOWISH WTR PTCLDY   -17 -23  77 CALM      30.44F
ARBOR VITAE    PTCLDY   -13 -19  72 CALM      30.46R
EAGLE RIVER    MOCLDY   -13 -20  72 CALM      30.45S
LAND O LAKES   PTCLDY   -21 -27  72 CALM      30.45S
RHINELANDER    PTCLDY    -9 -13  83 SW3       30.47R
PHILLIPS       PTCLDY   -12 -15  82 S3        30.48R
ANTIGO         PTCLDY   -14 -17  84 CALM      30.51R
TOMAHAWK       PTCLDY   -20 -26  73 CALM      30.50S
MERRILL        PTCLDY   -20 -26  72 CALM      30.52S
$$

WIZ013-073-281400-
NORTHEAST WISCONSIN

CITY           SKY/WX    TMP DP  RH WIND       PRES   REMARKS
IRON MOUNTAIN  PTCLDY    -2  -7  79 NW3       30.50R
MARINETTE      CLEAR      0  -6  78 SW8       30.59R WCI -15
OCONTO         CLEAR     -5 -10  80 SW3       30.62R
$$

WIZ017-030-035>037-045-281400-
CENTRAL WISCONSIN

CITY           SKY/WX    TMP DP  RH WIND       PRES   REMARKS
MEDFORD        PTCLDY    -9 -14  81 S6        30.50S WCI -23
WAUSAU         PTCLDY    -8 -11  86 S5        30.54R WCI -19
MOSINEE        CLEAR     -9 -13  84 S3        30.55R
MARSHFIELD     PTCLDY    -7 -10  87 SW6       30.54S WCI -20
WISC RAPIDS    PTCLDY   -11 -17  75 CALM      30.60S
STEVENS POINT  PTCLDY   -13 -18  79 S3        30.58S
WAUPACA        PTCLDY    -3  -9  77 CALM      30.62R
SHAWANO        PTCLDY    -1  -8  74 CALM      30.60S
CLINTONVILLE   PTCLDY    -2  -8  78 S3        30.60R
$$

WIZ038-039-048-051-281400-
FOX VALLEY

CITY           SKY/WX    TMP DP  RH WIND       PRES   REMARKS
NWS GREEN BAY  CLEAR      0  -6  76 SW6       30.62S WCI -12
APPLETON       CLEAR     -4  -9  77 SW6       30.61R WCI -16
OSHKOSH        PTCLDY    -2  -8  76 S6        30.62S WCI -14
FOND DU LAC    PTCLDY    -4 -10  75 S5        30.64R WCI -15
$$

WIZ022-050-052-281400-
EAST CENTRAL WISCONSIN

CITY           SKY/WX    TMP DP  RH WIND       PRES   REMARKS
STURGEON BAY   CLEAR      1  -8  66 W8        30.61S WCI -12
MANITOWOC      CLEAR      2  -4  76 W3        30.65R
SHEBOYGAN      CLEAR     -2  -8  76 S6        30.64R WCI -14
$$

LMZ563-521-522-541>543-281400-
LAKESHORE

STATION/POSITION TIME  TEMP    WIND        PRES    VSBY  WAVE
                       AIR SEA DIR/SP/G                  HT/PER
                 (UTC) (F)     (DEG/KT/KT) (MB)    (MI)  (FT/S)
SHEBOYGAN LKSHOR 1300    4     240/  6/  7 1040.0R
KEWAUNEE LKSHORE 1300    2     260/  9/ 12 1035.9S
NORTHPORT PIER   1300    4     230/  5/ 10 1035.6F
SISTER BAY LKSHO 1200    4     230/  7/  9   N/A
CHAMBERS ISLAND  1300    1     190/  5/ 11 1035.9R
MENOMINEE LKSHOR 1300    2     210/  6     1036.6S
$$



USA.gov is the U.S. government's official web portal to all federal, state and local government web resources and services.